Main page
Satellite images Climate Cyclones Lightning AirportsFAQ Languages Contact Newsletter About
Weather : Europe Africa North America South America Asia Australia-Oceania Others

4479, Mandalay, Mandalay International Airport

48042

latitude: , longitude: Burma, elevation: 21-59N m


METAR: VYMD 200130Z 17007KT 7000 BKN020 FEW025CB 27/26 Q1009